ROMMA est une association bénévole à but non lucratif. Votre soutien est indispensable : ADHERER à ROMMA ou FAIRE un DON

Briord - (01, Ain)

Bugey (281 m)   Longitude: 05° 29' 13" E   Latitude: 45° 46' 37" N Station partenaire n°15
 

Détail journalier du     <<     >>

Température Precipitation Humidité Pression Vent Dir Rafale Dir. rafale Ensol.
Heure (°C) (mm) (%) (hPa) (km/h) (km/h) (min)
01:00 17.207110151NE11N0
02:00 16.20741015010NE0
03:00 16.707110154NNE16NNE0
04:00 14.30811015010NE0
05:00 13.3085101503SSE0
06:00 12.5088101500---0
07:00 12.1089101502ESE0
08:00 11.4089101602SE0
09:00 11.4092101600---0
10:00 13.0090101602SE0
11:00 17.507810172SE8SE0
12:00 19.007410171O10O0
13:00 20.906710161ONO11ONO0
14:00 23.206110164NO16NO50
15:00 24.905710164OSO21NO60
16:00 27.005410155NO18NO60
17:00 28.105210155O23NO60
18:00 28.704510146ONO23O60
19:00 29.104210149NO26NO60
20:00 28.804210149NO24NNO60
21:00 28.604110149ONO24ONO60
22:00 27.904210147NO23NO0
23:00 26.103910145NNO16NO0
minuit 20.2057101406NNE0

Graphique du 16-07-2019

 

Serveur OMMA